Total_Precipitation_Accumulation
2.65 2.92 2.81 2.66 2.70 2.70 2.96 3.26 3.28 2.92 2.63 2.43 2.25 2.15 2.13 2.10 2.19 2.01 1.95 1.93 1.71 1.55 1.45 1.36 1.31 1.29 1.37 1.52 1.74 1.97 2.14 2.29 2.42 2.55 2.74 2.97 3.21 3.44
2.61 2.77 2.74 2.67 2.88 2.87 2.97 3.20 3.39 3.32 2.80 2.61 2.50 2.17 2.21 1.86 2.00 1.88 1.82 1.79 1.56 1.45 1.38 1.34 1.32 1.30 1.30 1.33 1.41 1.55 1.73 1.87 2.01 2.11 2.16 2.21 2.27 2.42
2.21 2.31 2.34 2.58 2.77 2.73 2.87 3.00 3.20 3.40 3.04 2.86 2.89 2.61 2.56 2.29 2.06 1.84 1.60 1.56 1.45 1.44 1.32 1.25 1.22 1.21 1.23 1.22 1.20 1.27 1.40 1.52 1.64 1.79 1.95 2.05 2.06 2.10
2.16 2.24 2.13 2.30 2.43 2.48 2.67 2.80 3.04 3.38 3.23 3.02 2.97 2.84 2.72 2.48 2.26 2.01 1.58 1.36 1.39 1.51 1.34 1.20 1.15 1.13 1.15 1.14 1.08 1.06 1.09 1.14 1.20 1.34 1.54 1.70 1.82 1.94
2.01 1.93 1.88 2.05 2.10 2.25 2.41 2.43 2.59 2.97 3.04 2.78 2.70 2.91 2.76 2.49 2.48 2.15 1.88 1.82 1.39 1.40 1.33 1.16 1.10 1.05 1.04 1.09 1.09 1.04 1.00 1.01 1.05 1.15 1.32 1.48 1.58 1.67
1.73 1.61 1.62 1.78 1.80 1.93 2.00 2.17 2.33 2.45 2.66 2.64 2.56 2.68 2.70 2.60 2.74 2.50 2.28 2.12 1.78 1.47 1.48 1.25 1.14 1.09 1.05 1.04 1.05 1.07 1.09 1.08 1.09 1.14 1.18 1.24 1.35 1.44
1.50 1.36 1.29 1.30 1.36 1.49 1.49 1.76 2.04 2.17 2.26 2.38 2.41 2.51 2.71 2.81 2.67 2.65 2.48 2.28 2.12 1.95 1.91 1.52 1.23 1.07 1.06 1.06 1.08 1.12 1.15 1.15 1.17 1.24 1.34 1.38 1.42 1.46
1.49 1.47 1.29 1.18 1.16 1.20 1.24 1.33 1.53 1.66 1.86 2.12 2.20 2.30 2.52 2.78 2.82 2.84 2.73 2.51 2.29 2.12 2.26 2.21 1.84 1.56 1.35 1.12 1.12 1.14 1.21 1.28 1.32 1.38 1.47 1.61 1.73 1.72
1.46 1.45 1.21 1.09 1.14 1.11 1.17 1.17 1.24 1.28 1.39 1.65 1.79 1.83 2.09 2.39 2.72 2.78 2.86 2.70 2.47 2.41 2.51 2.55 2.60 2.36 1.78 1.43 1.36 1.19 1.21 1.31 1.37 1.43 1.50 1.54 1.69 1.84
1.38 1.42 1.40 1.34 1.25 1.27 1.29 1.22 1.12 1.13 1.15 1.11 1.19 1.41 1.61 1.85 2.22 2.41 2.72 2.91 2.76 2.65 2.67 2.75 2.76 2.97 2.47 1.92 1.75 1.49 1.42 1.44 1.50 1.51 1.54 1.61 1.67 1.76
1.43 1.45 1.43 1.35 1.35 1.32 1.30 1.29 1.17 1.08 1.06 1.05 1.02 1.14 1.35 1.51 1.80 2.14 2.44 2.65 2.74 2.80 2.84 2.90 2.82 2.96 3.24 2.77 2.08 1.73 1.49 1.43 1.48 1.53 1.58 1.67 1.74 1.74
1.53 1.52 1.42 1.32 1.39 1.29 1.17 1.21 1.20 1.19 1.22 1.16 1.13 1.17 1.23 1.40 1.67 1.93 2.20 2.47 2.51 2.59 2.43 2.40 2.43 2.58 3.03 3.22 2.83 2.20 1.73 1.56 1.47 1.45 1.48 1.59 1.72 1.58
1.57 1.59 1.55 1.44 1.20 1.11 1.08 1.09 1.16 1.23 1.30 1.31 1.31 1.33 1.41 1.45 1.51 1.70 1.97 2.21 2.30 2.12 1.89 2.00 2.19 2.32 2.40 2.58 2.73 2.67 2.27 1.93 1.72 1.59 1.54 1.51 1.53 1.49
1.84 1.83 1.76 1.56 1.31 1.17 1.06 1.09 1.16 1.12 1.15 1.26 1.24 1.22 1.29 1.35 1.40 1.57 1.76 1.89 1.99 1.99 1.94 2.05 2.21 2.24 2.34 2.38 2.42 2.46 2.46 2.29 2.10 1.98 1.91 1.88 1.69 1.60
2.09 2.10 1.96 1.71 1.45 1.23 1.13 1.10 1.08 1.04 1.09 1.16 1.11 1.06 1.11 1.19 1.27 1.43 1.60 1.76 1.81 1.76 1.77 1.90 2.03 2.07 2.18 2.26 2.19 2.09 2.16 2.22 2.21 2.19 2.22 2.21 2.07 1.90
2.18 2.11 1.99 1.79 1.51 1.35 1.26 1.15 1.05 1.12 1.14 1.12 1.12 1.11 1.18 1.29 1.39 1.45 1.57 1.70 1.84 1.79 1.74 1.78 1.85 1.97 1.95 1.83 1.77 1.65 1.65 1.76 1.92 2.06 2.26 2.46 2.50 2.41
2.29 2.12 1.98 1.76 1.58 1.49 1.41 1.31 1.24 1.23 1.18 1.15 1.18 1.17 1.17 1.23 1.31 1.35 1.44 1.50 1.55 1.56 1.59 1.66 1.78 1.91 1.92 1.86 1.75 1.58 1.53 1.46 1.50 1.80 2.13 2.37 2.38 2.25
1.76 1.72 1.74 1.67 1.57 1.49 1.42 1.33 1.28 1.23 1.21 1.20 1.19 1.17 1.12 1.13 1.20 1.32 1.42 1.42 1.38 1.38 1.45 1.51 1.73 1.95 1.99 1.83 1.51 1.41 1.40 1.36 1.37 1.58 1.77 1.86 1.85 1.74
1.44 1.49 1.45 1.42 1.39 1.35 1.32 1.25 1.20 1.19 1.24 1.25 1.20 1.19 1.18 1.18 1.21 1.31 1.42 1.45 1.39 1.36 1.45 1.59 1.73 1.87 1.86 1.65 1.42 1.17 1.19 1.23 1.36 1.54 1.63 1.61 1.50 1.36
1.31 1.37 1.37 1.35 1.34 1.34 1.34 1.30 1.29 1.31 1.33 1.34 1.31 1.30 1.31 1.32 1.34 1.35 1.42 1.48 1.44 1.41 1.48 1.58 1.61 1.65 1.66 1.57 1.47 1.32 1.10 1.16 1.23 1.35 1.44 1.47 1.37 1.21
1.41 1.44 1.43 1.40 1.40 1.44 1.45 1.42 1.41 1.38 1.33 1.37 1.36 1.35 1.34 1.36 1.42 1.45 1.52 1.58 1.52 1.46 1.40 1.39 1.46 1.57 1.70 1.89 1.79 1.54 1.34 1.21 1.23 1.26 1.35 1.47 1.47 1.40
1.35 1.40 1.41 1.39 1.42 1.46 1.44 1.40 1.39 1.36 1.33 1.33 1.30 1.31 1.33 1.32 1.36 1.44 1.47 1.48 1.45 1.39 1.33 1.34 1.51 1.70 1.78 1.86 1.77 1.63 1.55 1.46 1.40 1.34 1.27 1.21 1.24 1.26
1.33 1.37 1.35 1.32 1.34 1.35 1.29 1.26 1.30 1.34 1.36 1.36 1.33 1.31 1.30 1.28 1.28 1.36 1.41 1.42 1.43 1.45 1.47 1.53 1.59 1.68 1.73 1.75 1.79 1.73 1.60 1.54 1.53 1.52 1.43 1.23 0.95 0.83